Hourly Data Report for September 09, 2017

All times are specified in Local Standard Time (LST). Add 1 hour to adjust for Daylight Saving Time where and when it is observed.

GJOA HAVEN A
NUNAVUT

68°38'08.000" N
95°51'01.000" W
46.90 m
2302337
71597
YHK

Download Data

Hourly Data (September 2017)
Hourly Data Report for September 9, 2017
Temp Definition
°C
Dew Point Temp Definition
°C
Rel Hum Definition
%
Wind Dir Definition
10's deg

Wind Spd Definition
km/h
Visibility Definition
km
Stn Press Definition
kPa
Hmdx Definition


Wind Chill Definition


Weather Definition


TIME
00:00 Legend Double Dagger -1.4 -2.7 91 36 30 16.1 99.00   -8 LegendNANA
01:00 Legend Double Dagger -1.5 -3.1 89 36 32 16.1 99.14   -9 LegendNANA
02:00 Legend Double Dagger -0.9 -2.6 88 35 34 16.1 99.26   -8 LegendNANA
03:00 Legend Double Dagger -1.0 -2.4 90 35 41 16.1 99.38   -9 LegendNANA
04:00 Legend Double Dagger -1.3 -2.6 91 34 45 12.9 99.51   -10 Snow
05:00 Legend Double Dagger -1.6 -2.6 93 33 37 16.1 99.64   -9 LegendNANA
06:00 Legend Double Dagger -1.9 -2.7 94 32 39 16.1 99.76   -10 LegendNANA
07:00 Legend Double Dagger -1.3 -2.1 94 32 43 12.9 99.87   -9 LegendNANA
08:00 Legend Double Dagger -1.1 -1.9 94 31 45 12.9 99.96   -9 LegendNANA
09:00 Legend Double Dagger -0.5 -1.5 93 32 39 16.1 100.06   -8 LegendNANA
10:00 Legend Double Dagger -0.4 -1.8 90 33 45 16.1 100.15   -8 LegendNANA
11:00 Legend Double Dagger -0.1 -1.9 88 33 43 16.1 100.26   -8 LegendNANA
12:00 Legend Double Dagger 0.3 -1.2 90 32 39 16.1 100.37     LegendNANA
13:00 Legend Double Dagger 0.3 -0.9 92 31 41 16.1 100.49     LegendNANA
14:00 Legend Double Dagger 0.8 -1.3 86 32 39 16.1 100.57     LegendNANA
15:00 Legend Double Dagger 0.6 -1.6 85 31 35 16.1 100.68     LegendNANA
16:00 Legend Double Dagger 0.3 -2.5 82 32 28 16.1 100.77     LegendNANA
17:00 Legend Double Dagger -0.5 -3.0 83 30 17 16.1 100.86   -5 LegendNANA
18:00 Legend Double Dagger -1.6 -3.5 87 30 15 16.1 100.93   -6 LegendNANA
19:00 Legend Double Dagger -2.7 -3.5 94 28 15 16.1 101.02   -8 LegendNANA
20:00 Legend Double Dagger -3.1 -4.1 93 30 22 16.1 101.07   -9 LegendNANA
21:00 Legend Double Dagger -3.7 -4.7 93 29 18 16.1 101.11   -10 LegendNANA
22:00 Legend Double Dagger -3.7 -4.7 93 28 17 16.1 101.15   -9 LegendNANA
23:00 Legend Double Dagger -4.0 -5.9 87 27 17 16.1 101.14   -10 LegendNANA

Notes on Data Quality.

Legend

  • E = Estimated
  • M = Missing
  • NA = Not Available
  • ‡ = Partner data that is not subject to review by the National Climate Archives
Date modified: